Powrót do katalogu

CZ-6A DEB

AktywnyPO
NORAD 60852·DEBRIS·🇨🇳 China

Wystrzelony Aug 6, 2024 z Taiyuan Satellite Launch Center

Loading…

Następne Przeloty (najbliższe 24 godziny)

TLE

ŚwieżeSource: Space-Track

Epoka: Sep 14, 2026, 14:16 UTC

1 60852U 24140JF  26257.59467572  .00000191  00000-0  13804-3 0  9999
2 60852  88.3966 223.2185 0389950  95.0998 269.4778 13.60682340103460

Śledź CZ-6A DEB w czasie rzeczywistym z AllMySat

Download on the App Store